COSMOS 1275 DEB, 12667

Orbit data source: Space-Track

COSMOS 1275 DEB, 12667 is space debris in LEO originally from a launch on Thu, 04 Jun 1981 UTC launched from the Plesetsk Missile And Space Complex (PKMTR). Debris objects in space refer to the collection of defunct objects orbiting the Earth. Examples of debris include non-operational satellites, rocket bodies, and fragments generated from explosions, collisions, or faulty payload assembly.

Loading next visibility...
Identifier
12667, 1981-053X
Orbit
LEO
Country
Flag of CISCIS
Related business
Manufacturer
Unknown
Mission
Spacecraft
Bus & Motor
Unknown
Mass
Unknown
Launch date (UTC)
1981-06-04 (45 years ago)
Launch vehicle
Unknown
Launch site
Plesetsk Missile And Space Complex (PKMTR)
Object type
Payload
Rocket body
Debris
Shape & HBR
Unknown shape, 0.1 m
Radar Cross Section
Small (<0.1 m²)

Expand to show TLE details & history
Last TLE update: 9 hours ago

TLE from 9 hours ago
0 COSMOS 1275 DEB
1 12667U 81053X   26104.65412954  .00000458  00000-0  40000-3 0  9992
2 12667  82.8364  66.2700 0032091 249.3678 289.6040 13.83565932245746
Epoch: 2026-04-14T15:41Z
TLE epoch observation values (Epoch: 2026-04-14T15:41:56.792Z)
Latitude
1.25675°
Longitude
167.79893°
Altitude
946.194 km
Speed
7.383 km/s
True Right ascension
16h 24m 27s
True Declination
1° 14' 58"
Sunlit
Object was in full shadow at epoch
Visualization orbit readout
Latitude
Unknown
Longitude
Unknown
Altitude
Unknown
Speed
Unknown
Apparent Right ascension
Unknown
Apparent Declination
Unknown
Sunlit
N/A
Visualization observer readout
Local Sidereal Time
07:40:51
Azimuth
Unknown
Elevation
Unknown
Doppler factor
Unknown
Orbital elements
Apogee altitude
971.919 km
Perigee altitude
924.895 km
Semi-major axis
7,326.544 km
Eccentricity
0.00321
Inclination
82.8364°
RAAN
66.27°
Arg. of periapsis
249.3678°
True anomaly
289.25712°
Mean anomaly
289.604°
Eccentric anomaly
289.4306°
Mean motion
3.46094 °/min
Orbital period
104.02 mins
BSTAR
0.0004
Loading maneuver chart data...
Computing Atmospheric mass density...
Loading historical data...
Loading historical data...
Loading historical data...
Loading historical data...
Loading historical data...
Loading historical data...
Loading historical data...

Documentation

Showing up to 5 results
|